Retour au catalogue

STARLINK-4760

ActifCommunicationsVLEO
NORAD 53828·PAYLOAD·🇺🇸 United States

Lancé Sep 19, 2022 depuis Cape Canaveral Space Force Station

Loading…

Prochains Passages (prochaines 24 heures)

TLE

FraisSource: CelesTrak SupGP

Époque: Sep 14, 2026, 20:53 UTC

1 53828C 22114L   26257.87062500 -.00021804  00000+0 -62361-3 0  2570
2 53828  53.1587 166.7369 0001257 101.0353  61.5097 15.35420581    16

Suivez STARLINK-4760 en temps réel avec AllMySat

Download on the App Store